This demonstration page uses our WeatherBlox Daily Observations layout. Learn more.

Left ArrowRight Arrow

Hourly Observations for September 25, 2019

Temp ( °F °C ) Dew Point ( °F °C ) Humidity (%) Winds ( mph kmh ) Pressure ( in mb ) Visibility ( mi km ) Precip ( " mm )
12:59 am 00:59 Clear 63 17.2 59 15 87 87 Calm 29.92 1013 10 16 0.00 0.00
1:59 am 01:59 Clear 63 17.2 59 15 87 87 Calm 29.91 1013 10 16 0.00 0.00
2:59 am 02:59 Clear 63 17.2 60 15.6 90 90 Calm 29.90 1013 10 16 0.00 0.00
3:59 am 03:59 Clear 65 18.3 60 15.6 84 84 WNW 3 6 29.91 1013 10 16 0.00 0.00
4:59 am 04:59 Clear 66 18.9 58 14.4 75 75 NW 6 9 29.92 1013 10 16 0.00 0.00
5:59 am 05:59 Mostly Clear 66 18.9 59 15 78 78 WNW 5 7 29.94 1014 10 16 0.00 0.00
6:59 am 06:59 Mostly Sunny 65 18.3 59 15 81 81 Calm 29.95 1014 10 16 0.00 0.00
7:59 am 07:59 Mostly Sunny 69 20.6 62 16.7 78 78 NNW 6 9 29.97 1015 10 16 0.00 0.00
8:59 am 08:59 Mostly Sunny 73 22.8 63 17.2 71 71 N 6 9 29.98 1015 10 16 0.00 0.00
9:59 am 09:59 Mostly Sunny 75 23.9 63 17.2 66 66 N 8 13 29.99 1016 10 16 0.00 0.00
10:59 am 10:59 Mostly Sunny 77 25 62 16.7 60 60 N 7 11 30.00 1016 10 16 0.00 0.00
11:59 am 11:59 Mostly Sunny 78 25.6 61 16.1 56 56 NNE 7 11 29.98 1015 10 16 0.00 0.00
12:59 pm 12:59 Sunny 78 25.6 57 13.9 48 48 N 7 11 29.96 1015 10 16 0.00 0.00
1:59 pm 13:59 Mostly Sunny 79 26.1 52 11.1 39 39 VRB 3 6 29.94 1014 10 16 0.00 0.00
2:59 pm 14:59 Mostly Sunny 79 26.1 55 12.8 44 44 NNE 8 13 29.92 1013 10 16 0.00 0.00
3:59 pm 15:59 Sunny 79 26.1 53 11.7 41 41 ENE 8 13 29.90 1013 10 16 0.00 0.00
4:59 pm 16:59 Sunny 79 26.1 54 12.2 42 42 E 9 15 29.90 1013 10 16 0.00 0.00
5:59 pm 17:59 Sunny 77 25 56 13.3 48 48 ESE 6 9 29.90 1013 10 16 0.00 0.00
6:59 pm 18:59 Mostly Clear 73 22.8 54 12.2 51 51 SE 8 13 29.91 1013 10 16 0.00 0.00
7:59 pm 19:59 Mostly Clear 71 21.7 54 12.2 55 55 SSE 6 9 29.91 1013 10 16 0.00 0.00
8:59 pm 20:59 Mostly Clear 71 21.7 57 13.9 61 61 SE 7 11 29.92 1013 10 16 0.00 0.00
9:59 pm 21:59 Mostly Clear 70 21.1 61 16.1 73 73 SSE 7 11 29.92 1013 10 16 0.00 0.00
10:59 pm 22:59 Mostly Clear 70 21.1 62 16.7 76 76 S 8 13 29.93 1013 10 16 0.00 0.00
11:59 pm 23:59 Mostly Clear 70 21.1 63 17.2 79 79 S 8 13 29.93 1014 10 16 0.00 0.00

Powered by AerisWeather